This is the latest recevied weather packets stored in our database for station/object KO4ZGL-13. If no packets are shown the sender has not sent any weather packets the latest 10 day(s).
| Time | Temp. | Humidity | Pressure | Rain* | Wind** | Luminosity | Snow |
|---|---|---|---|---|---|---|---|
| 1787521219 | 33.33° C | 73% | 1013 hPa | 0 mm | - | 271 W/m² | - |
| 1787520914 | 33.33° C | 73% | 1013.1 hPa | 0 mm | - | 280 W/m² | - |
| 1787520610 | 33.89° C | 73% | 1012.8 hPa | 0 mm | - | 294 W/m² | - |
| 1787520306 | 33.33° C | 70% | 1013 hPa | 0 mm | - | 314 W/m² | - |
| 1787520001 | 34.44° C | 74% | 1013 hPa | 0 mm | - | 316 W/m² | - |
| 1787519696 | 34.44° C | 69% | 1012.7 hPa | 0 mm | - | 265 W/m² | - |
| 1787519390 | 33.89° C | 70% | 1012.8 hPa | 0 mm | - | 373 W/m² | - |
| 1787519085 | 34.44° C | 67% | 1012.8 hPa | 0 mm | - | 229 W/m² | - |
| 1787518780 | 35° C | 70% | 1012.8 hPa | 0 mm | - | 425 W/m² | - |
| 1787518476 | 34.44° C | 70% | 1012.8 hPa | 0 mm | - | 428 W/m² | - |
| 1787518171 | 34.44° C | 70% | 1012.8 hPa | 0 mm | - | 416 W/m² | - |
| 1787517867 | 33.89° C | 69% | 1012.6 hPa | 0 mm | - | 423 W/m² | - |
| 1787517563 | 33.89° C | 71% | 1012.8 hPa | 0 mm | - | 447 W/m² | - |
| 1787517260 | 35° C | 64% | 1012.7 hPa | 0 mm | - | 466 W/m² | - |
| 1787516958 | 35° C | 66% | 1012.9 hPa | 0 mm | - | 465 W/m² | - |
| 1787516654 | 35.56° C | 61% | 1012.8 hPa | 0 mm | - | 205 W/m² | - |
| 1787516349 | 36.11° C | 57% | 1012.8 hPa | 0 mm | - | 159 W/m² | - |
| 1787516044 | 35° C | 62% | 1012.8 hPa | 0 mm | - | 478 W/m² | - |
| 1787515739 | 35° C | 66% | 1012.7 hPa | 0 mm | - | 455 W/m² | - |
| 1787515434 | 35.56° C | 62% | 1013 hPa | 0 mm | - | 479 W/m² | - |
| 1787515134 | 35° C | 58% | 1012.8 hPa | 0 mm | - | 507 W/m² | - |
| 1787514832 | 35° C | 63% | 1013 hPa | 0 mm | - | 488 W/m² | - |
| 1787514527 | 36.11° C | 66% | 1013 hPa | 0 mm | - | 494 W/m² | - |
| 1787514223 | 35.56° C | 56% | 1013.1 hPa | 0 mm | - | 549 W/m² | - |
| 1787513922 | 34.44° C | 61% | 1013.3 hPa | 0 mm | - | 570 W/m² | - |
* Rain latest hour (hover to see other rain measurements)
** Current wind speed in m/s (hover to see current wind gust speed)